ETD123 YSSY-YPAD

Flight info

Callsign ETD123
Flight time N/A
Altitude 38000
Route TESAT A576 KADOM H44 MAXEM Q60 KAKLU H309 AD
Aircraft A320/M-SDE3FGHIRWY/LB1

Departure

Time 2026-04-23 12:48
Airport Sydney Kingsford Smith International Airport (YSSY)

Arrival

Time N/A
Airport Adelaide International Airport (YPAD)
Time Latitude Longitude Altitude Speed Heading
2026-04-23 12:07 -33.93482 151.18129 31 ft 0 kts 98°
2026-04-23 12:31 -33.93480 151.18111 31 ft 2 kts 98°
2026-04-23 12:31 -33.93477 151.18091 31 ft 2 kts 98°
2026-04-23 12:31 -33.93475 151.18070 30 ft 2 kts 98°
2026-04-23 12:32 -33.93472 151.18049 31 ft 2 kts 98°
2026-04-23 12:32 -33.93471 151.18035 31 ft 0 kts 103°
2026-04-23 12:35 -33.93471 151.18036 31 ft 4 kts 104°
2026-04-23 12:35 -33.93513 151.18075 31 ft 9 kts 172°
2026-04-23 12:35 -33.93577 151.18063 31 ft 9 kts 193°
2026-04-23 12:35 -33.93637 151.18054 31 ft 8 kts 181°
2026-04-23 12:36 -33.93692 151.18061 31 ft 8 kts 168°
2026-04-23 12:36 -33.93747 151.18072 31 ft 8 kts 185°
2026-04-23 12:36 -33.93782 151.18031 31 ft 7 kts 245°
2026-04-23 12:36 -33.93797 151.17976 29 ft 8 kts 254°
2026-04-23 12:37 -33.93812 151.17902 26 ft 10 kts 256°
2026-04-23 12:37 -33.93835 151.17812 22 ft 13 kts 244°
2026-04-23 12:37 -33.93908 151.17782 21 ft 12 kts 171°
2026-04-23 12:37 -33.93992 151.17801 23 ft 13 kts 167°
2026-04-23 12:38 -33.94083 151.17827 24 ft 15 kts 166°
2026-04-23 12:38 -33.94184 151.17853 25 ft 15 kts 168°
2026-04-23 12:38 -33.94294 151.17882 25 ft 17 kts 168°
2026-04-23 12:38 -33.94349 151.17896 25 ft 0 kts 168°
2026-04-23 12:39 -33.94351 151.17897 24 ft 3 kts 168°
2026-04-23 12:39 -33.94403 151.17906 24 ft 9 kts 172°
2026-04-23 12:39 -33.94466 151.17903 26 ft 9 kts 198°
2026-04-23 12:39 -33.94506 151.17843 24 ft 9 kts 237°
2026-04-23 12:40 -33.94558 151.17808 23 ft 8 kts 185°
2026-04-23 12:40 -33.94581 151.17810 25 ft 1 kts 170°
2026-04-23 12:40 -33.94579 151.17810 24 ft 1 kts 170°
2026-04-23 12:40 -33.94656 151.17827 21 ft 18 kts 167°
2026-04-23 12:41 -33.94784 151.17863 21 ft 19 kts 163°
2026-04-23 12:41 -33.94921 151.17901 24 ft 21 kts 168°
2026-04-23 12:41 -33.95060 151.17933 29 ft 20 kts 166°
2026-04-23 12:41 -33.95115 151.18057 26 ft 18 kts 85°
2026-04-23 12:42 -33.95084 151.18217 24 ft 21 kts 77°
2026-04-23 12:42 -33.95068 151.18300 25 ft 0 kts 77°
2026-04-23 12:43 -33.95067 151.18303 25 ft 3 kts 72°
2026-04-23 12:43 -33.95064 151.18318 25 ft 1 kts 77°
2026-04-23 12:44 -33.95043 151.18429 28 ft 40 kts 77°
2026-04-23 12:44 -33.94991 151.18742 24 ft 32 kts 82°
2026-04-23 12:44 -33.95133 151.18878 24 ft 30 kts 168°
2026-04-23 12:44 -33.95181 151.18889 22 ft 0 kts 171°
2026-04-23 12:47 -33.95182 151.18890 22 ft 2 kts 170°
2026-04-23 12:47 -33.95411 151.18951 22 ft 79 kts 167°
2026-04-23 12:47 -33.96219 151.19182 52 ft 153 kts 165°
2026-04-23 12:48 -33.97333 151.19374 683 ft 163 kts 171°
2026-04-23 12:48 -33.98387 151.19576 1717 ft 146 kts 161°
2026-04-23 12:48 -33.99415 151.19685 2408 ft 163 kts 196°
2026-04-23 12:48 -34.00306 151.18706 2927 ft 196 kts 248°
2026-04-23 12:49 -34.00328 151.17008 3639 ft 216 kts 295°
2026-04-23 12:49 -33.99327 151.15777 4849 ft 202 kts 343°
2026-04-23 12:49 -33.97983 151.15535 6035 ft 196 kts 358°
2026-04-23 12:49 -33.96522 151.15568 6660 ft 230 kts
2026-04-23 12:50 -33.94743 151.15706 6775 ft 286 kts
2026-04-23 12:50 -33.92613 151.15169 6772 ft 344 kts 335°
2026-04-23 12:50 -33.90712 151.13241 7146 ft 368 kts 305°
2026-04-23 12:50 -33.89793 151.10440 8308 ft 356 kts 277°
2026-04-23 12:51 -33.89733 151.07545 9756 ft 337 kts 268°
2026-04-23 12:51 -33.89749 151.04768 10865 ft 335 kts 268°
2026-04-23 12:51 -33.89770 151.01910 11430 ft 346 kts 268°
2026-04-23 12:51 -33.89737 150.98995 12138 ft 352 kts 275°
2026-04-23 12:52 -33.89131 150.96114 12875 ft 358 kts 287°
2026-04-23 12:52 -33.88366 150.93249 13645 ft 361 kts 287°
2026-04-23 12:52 -33.87581 150.90360 14380 ft 365 kts 287°
2026-04-23 12:52 -33.86785 150.87443 15045 ft 369 kts 287°
2026-04-23 12:53 -33.85981 150.84502 15718 ft 372 kts 287°
2026-04-23 12:53 -33.85171 150.81531 16395 ft 374 kts 286°
2026-04-23 12:53 -33.84362 150.78550 17066 ft 377 kts 286°
2026-04-23 12:53 -33.83548 150.75540 17729 ft 380 kts 286°
2026-04-23 12:54 -33.82729 150.72510 18413 ft 382 kts 285°
2026-04-23 12:54 -33.81917 150.69507 19042 ft 384 kts 285°
2026-04-23 12:54 -33.81087 150.66441 19610 ft 387 kts 286°
2026-04-23 12:54 -33.80247 150.63364 20189 ft 389 kts 286°
2026-04-23 12:55 -33.79396 150.60253 20757 ft 392 kts 286°
2026-04-23 12:55 -33.78540 150.57129 21323 ft 395 kts 286°
2026-04-23 12:55 -33.77675 150.53982 21894 ft 398 kts 286°
2026-04-23 12:55 -33.76806 150.50810 22464 ft 401 kts 286°
2026-04-23 12:56 -33.75930 150.47614 23027 ft 404 kts 286°
2026-04-23 12:56 -33.75047 150.44399 23592 ft 406 kts 286°
2026-04-23 12:56 -33.74169 150.41195 24129 ft 409 kts 286°
2026-04-23 12:56 -33.73279 150.37939 24587 ft 411 kts 286°
2026-04-23 12:57 -33.72381 150.34665 25031 ft 414 kts 286°
2026-04-23 12:57 -33.71649 150.31316 25455 ft 415 kts 278°
2026-04-23 12:57 -33.71372 150.27867 25871 ft 415 kts 268°
2026-04-23 12:57 -33.71554 150.24455 26273 ft 416 kts 261°
2026-04-23 12:58 -33.71871 150.20996 26677 ft 418 kts 262°
2026-04-23 12:58 -33.72183 150.17514 27068 ft 421 kts 262°
2026-04-23 12:58 -33.72490 150.14009 27453 ft 423 kts 262°
2026-04-23 12:58 -33.72795 150.10486 27824 ft 425 kts 262°
2026-04-23 12:59 -33.73102 150.06934 28207 ft 428 kts 262°
2026-04-23 12:59 -33.73407 150.03364 28573 ft 430 kts 262°
2026-04-23 12:59 -33.73712 149.99775 28926 ft 433 kts 262°
2026-04-23 12:59 -33.74018 149.96166 29291 ft 435 kts 262°
2026-04-23 13:00 -33.74327 149.92534 29642 ft 437 kts 262°
2026-04-23 13:00 -33.74639 149.88888 29979 ft 440 kts 262°
2026-04-23 13:00 -33.74952 149.85254 30347 ft 441 kts 262°
2026-04-23 13:00 -33.75264 149.81586 30675 ft 443 kts 262°
2026-04-23 13:01 -33.75573 149.77897 30950 ft 444 kts 262°
2026-04-23 13:01 -33.75877 149.74198 31214 ft 446 kts 262°
2026-04-23 13:01 -33.76180 149.70474 31472 ft 448 kts 262°
2026-04-23 13:01 -33.76485 149.66745 31725 ft 449 kts 262°
2026-04-23 13:02 -33.76795 149.62998 31971 ft 451 kts 262°
2026-04-23 13:02 -33.77107 149.59249 32293 ft 450 kts 261°
2026-04-23 13:02 -33.77314 149.56773 32536 ft 449 kts 260°
2026-04-23 13:02 -33.77625 149.53042 32899 ft 448 kts 260°
2026-04-23 13:03 -33.77934 149.49321 33244 ft 447 kts 260°
2026-04-23 13:03 -33.78238 149.45605 33592 ft 446 kts 260°
2026-04-23 13:03 -33.78538 149.41899 33935 ft 446 kts 260°
2026-04-23 13:03 -33.78834 149.38191 34275 ft 445 kts 260°
2026-04-23 13:04 -33.79127 149.34494 34589 ft 444 kts 260°
2026-04-23 13:04 -33.79422 149.30796 34877 ft 444 kts 259°
2026-04-23 13:04 -33.79714 149.27103 35167 ft 443 kts 259°
2026-04-23 13:04 -33.80005 149.23424 35425 ft 442 kts 259°
2026-04-23 13:05 -33.80300 149.19736 35696 ft 442 kts 259°
2026-04-23 13:05 -33.80594 149.16059 35954 ft 441 kts 259°
2026-04-23 13:05 -33.80887 149.12385 36199 ft 441 kts 259°
2026-04-23 13:05 -33.81176 149.08716 36413 ft 441 kts 259°
2026-04-23 13:06 -33.82027 148.97744 36485 ft 440 kts 259°
2026-04-23 13:07 -33.82593 148.90415 36477 ft 440 kts 259°
2026-04-23 13:07 -33.83153 148.83089 36477 ft 440 kts 259°
2026-04-23 13:08 -33.83708 148.75760 36477 ft 440 kts 259°
2026-04-23 13:08 -33.84255 148.68435 36471 ft 440 kts 258°
2026-04-23 13:09 -33.85166 148.61224 36470 ft 434 kts 252°
2026-04-23 13:09 -33.86365 148.54105 36467 ft 434 kts 252°
2026-04-23 13:10 -33.87554 148.46969 36447 ft 435 kts 252°
2026-04-23 13:10 -33.88735 148.39835 36466 ft 434 kts 252°
2026-04-23 13:11 -33.89911 148.32704 36463 ft 434 kts 252°
2026-04-23 13:11 -33.91085 148.25567 36455 ft 434 kts 252°
2026-04-23 13:12 -33.92257 148.18439 36437 ft 434 kts 252°
2026-04-23 13:12 -33.93422 148.11307 36447 ft 434 kts 252°
2026-04-23 13:13 -33.94577 148.04179 36445 ft 434 kts 252°
2026-04-23 13:13 -33.95729 147.97046 36444 ft 434 kts 252°
2026-04-23 13:14 -33.96881 147.89910 36435 ft 434 kts 252°
2026-04-23 13:14 -33.98027 147.82780 36439 ft 434 kts 252°
2026-04-23 13:15 -33.99169 147.75647 36437 ft 433 kts 252°
2026-04-23 13:15 -34.00309 147.68509 36436 ft 434 kts 252°
2026-04-23 13:16 -34.01441 147.61376 36437 ft 433 kts 252°
2026-04-23 13:16 -34.02569 147.54241 36428 ft 433 kts 252°
2026-04-23 13:17 -34.03693 147.47096 36435 ft 434 kts 252°
2026-04-23 13:17 -34.04809 147.39989 36434 ft 434 kts 252°
2026-04-23 13:18 -34.05927 147.32841 36434 ft 433 kts 252°
2026-04-23 13:18 -34.07040 147.25701 36443 ft 433 kts 252°
2026-04-23 13:19 -34.08148 147.18557 36427 ft 433 kts 252°
2026-04-23 13:19 -34.09250 147.11413 36427 ft 433 kts 252°
2026-04-23 13:20 -34.10348 147.04273 36422 ft 433 kts 252°
2026-04-23 13:20 -34.11447 146.97131 36430 ft 433 kts 252°
2026-04-23 13:21 -34.12539 146.89987 36422 ft 433 kts 252°
2026-04-23 13:21 -34.13626 146.82837 36398 ft 433 kts 252°
2026-04-23 13:22 -34.14702 146.75722 36423 ft 432 kts 252°
2026-04-23 13:22 -34.15778 146.68585 36423 ft 432 kts 252°
2026-04-23 13:23 -34.16847 146.61447 36421 ft 432 kts 252°
2026-04-23 13:23 -34.17917 146.54291 36423 ft 432 kts 252°
2026-04-23 13:24 -34.18986 146.47134 36419 ft 433 kts 252°
2026-04-23 13:24 -34.20049 146.39979 36421 ft 433 kts 252°
2026-04-23 13:25 -34.21099 146.32866 36421 ft 433 kts 253°
2026-04-23 13:25 -34.22150 146.25711 36422 ft 432 kts 253°
2026-04-23 13:26 -34.23201 146.18563 36417 ft 432 kts 253°
2026-04-23 13:26 -34.24244 146.11413 36419 ft 432 kts 253°
2026-04-23 13:27 -34.25267 146.04256 36399 ft 433 kts 254°
2026-04-23 13:27 -34.26178 145.97057 36409 ft 433 kts 255°
2026-04-23 13:28 -34.27024 145.89842 36413 ft 433 kts 255°
2026-04-23 13:28 -34.27891 145.82625 36408 ft 433 kts 255°
2026-04-23 13:29 -34.28780 145.75414 36412 ft 433 kts 255°
2026-04-23 13:29 -34.29666 145.68220 36408 ft 433 kts 255°
2026-04-23 13:30 -34.30537 145.61015 36403 ft 433 kts 255°
2026-04-23 13:30 -34.31401 145.53813 36409 ft 433 kts 255°
2026-04-23 13:31 -34.32266 145.46608 36408 ft 433 kts 255°
2026-04-23 13:31 -34.33128 145.39392 36407 ft 433 kts 256°
2026-04-23 13:32 -34.33979 145.32233 36407 ft 433 kts 256°
2026-04-23 13:32 -34.34828 145.25019 36393 ft 432 kts 256°
2026-04-23 13:33 -34.35673 145.17807 36410 ft 432 kts 256°
2026-04-23 13:33 -34.36510 145.10602 36404 ft 432 kts 256°
2026-04-23 13:34 -34.37350 145.03394 36404 ft 432 kts 256°
2026-04-23 13:34 -34.38188 144.96186 36405 ft 432 kts 256°
2026-04-23 13:35 -34.39018 144.88972 36405 ft 432 kts 257°
2026-04-23 13:35 -34.39837 144.81765 36401 ft 432 kts 257°
2026-04-23 13:36 -34.40657 144.74555 36380 ft 432 kts 257°
2026-04-23 13:36 -34.41479 144.67347 36396 ft 432 kts 257°
2026-04-23 13:37 -34.42292 144.60144 36395 ft 432 kts 257°
2026-04-23 13:37 -34.43096 144.52936 36396 ft 432 kts 257°
2026-04-23 13:38 -34.43895 144.45716 36398 ft 432 kts 257°
2026-04-23 13:38 -34.44690 144.38510 36395 ft 432 kts 257°
2026-04-23 13:39 -34.45488 144.31304 36396 ft 431 kts 257°
2026-04-23 13:39 -34.46284 144.24096 36381 ft 431 kts 258°
2026-04-23 13:40 -34.47077 144.16889 36397 ft 431 kts 258°
2026-04-23 13:40 -34.47854 144.09681 36394 ft 431 kts 258°
2026-04-23 13:41 -34.48627 144.02467 36391 ft 431 kts 258°
2026-04-23 13:41 -34.49396 143.95308 36390 ft 431 kts 258°
2026-04-23 13:42 -34.50167 143.88093 36391 ft 431 kts 258°
2026-04-23 13:42 -34.50934 143.80831 36391 ft 431 kts 258°
2026-04-23 13:43 -34.51683 143.73666 36377 ft 431 kts 258°
2026-04-23 13:43 -34.52438 143.66456 36391 ft 431 kts 258°
2026-04-23 13:44 -34.53070 143.60422 36391 ft 431 kts 258°
2026-04-23 13:44 -34.53823 143.53215 36391 ft 430 kts 258°
2026-04-23 13:45 -34.54563 143.46013 36392 ft 430 kts 259°
2026-04-23 13:45 -34.55292 143.38812 36387 ft 430 kts 259°
2026-04-23 13:46 -34.56023 143.31621 36382 ft 430 kts 259°
2026-04-23 13:46 -34.56757 143.24420 36371 ft 430 kts 259°
2026-04-23 13:47 -34.57475 143.17280 36383 ft 429 kts 259°
2026-04-23 13:47 -34.58191 143.10088 36387 ft 429 kts 259°
2026-04-23 13:48 -34.58907 143.02902 36385 ft 429 kts 259°
2026-04-23 13:48 -34.59612 142.95710 36384 ft 428 kts 259°
2026-04-23 13:49 -34.60313 142.88530 36384 ft 428 kts 259°
2026-04-23 13:49 -34.61012 142.81350 36382 ft 428 kts 259°
2026-04-23 13:50 -34.61713 142.74186 35905 ft 426 kts 260°
2026-04-23 13:50 -34.62060 142.70605 35175 ft 428 kts 260°
2026-04-23 13:50 -34.62410 142.67002 34413 ft 430 kts 260°
2026-04-23 13:50 -34.62761 142.63381 33525 ft 433 kts 260°
2026-04-23 13:51 -34.63112 142.59734 32632 ft 436 kts 261°
2026-04-23 13:51 -34.63460 142.56100 31743 ft 440 kts 261°
2026-04-23 13:51 -34.63766 142.52414 31093 ft 438 kts 262°
2026-04-23 13:51 -34.64000 142.48734 30491 ft 435 kts 264°
2026-04-23 13:52 -34.64187 142.45082 29822 ft 432 kts 264°
2026-04-23 13:52 -34.64354 142.41461 29180 ft 428 kts 264°
2026-04-23 13:52 -34.64524 142.37860 28563 ft 425 kts 264°
2026-04-23 13:52 -34.64704 142.34297 27968 ft 421 kts 264°
2026-04-23 13:53 -34.64895 142.30767 27624 ft 411 kts 264°
2026-04-23 13:53 -34.65086 142.27361 27484 ft 398 kts 264°
2026-04-23 13:53 -34.65270 142.24069 27353 ft 385 kts 264°
2026-04-23 13:53 -34.65449 142.20866 27109 ft 376 kts 264°
2026-04-23 13:54 -34.65627 142.17713 26713 ft 372 kts 264°
2026-04-23 13:54 -34.65804 142.14585 26284 ft 370 kts 264°
2026-04-23 13:54 -34.65976 142.11478 25848 ft 367 kts 264°
2026-04-23 13:54 -34.66143 142.08395 25465 ft 365 kts 264°
2026-04-23 13:55 -34.66309 142.05322 25316 ft 365 kts 264°
2026-04-23 13:55 -34.66473 142.02258 24927 ft 362 kts 264°
2026-04-23 13:55 -34.66637 141.99210 24497 ft 360 kts 264°
2026-04-23 13:55 -34.66800 141.96179 24071 ft 359 kts 264°
2026-04-23 13:56 -34.66962 141.93163 23598 ft 357 kts 264°
2026-04-23 13:56 -34.67120 141.90164 23124 ft 355 kts 265°
2026-04-23 13:56 -34.67276 141.87187 22676 ft 352 kts 265°
2026-04-23 13:56 -34.67431 141.84228 22244 ft 350 kts 265°
2026-04-23 13:57 -34.67584 141.81282 21825 ft 348 kts 265°
2026-04-23 13:57 -34.67733 141.78359 21414 ft 346 kts 265°
2026-04-23 13:57 -34.67881 141.75453 21013 ft 343 kts 265°
2026-04-23 13:57 -34.68027 141.72565 20615 ft 342 kts 265°
2026-04-23 13:58 -34.68173 141.69692 20219 ft 340 kts 265°
2026-04-23 13:58 -34.68316 141.66839 19835 ft 338 kts 265°
2026-04-23 13:58 -34.68459 141.63994 19458 ft 336 kts 265°
2026-04-23 13:58 -34.68602 141.61165 19086 ft 335 kts 265°
2026-04-23 13:59 -34.68743 141.58352 18724 ft 333 kts 266°
2026-04-23 13:59 -34.68881 141.55581 18326 ft 332 kts 265°
2026-04-23 13:59 -34.69019 141.52786 17914 ft 330 kts 266°
2026-04-23 13:59 -34.69155 141.50006 17509 ft 329 kts 266°
2026-04-23 14:00 -34.69246 141.48133 17247 ft 328 kts 266°
2026-04-23 14:00 -34.69426 141.44479 16742 ft 326 kts 266°
2026-04-23 14:00 -34.69563 141.41735 16385 ft 325 kts 266°
2026-04-23 14:00 -34.69699 141.39000 16022 ft 323 kts 266°
2026-04-23 14:01 -34.69832 141.36278 15671 ft 322 kts 266°
2026-04-23 14:01 -34.69963 141.33567 15391 ft 321 kts 266°
2026-04-23 14:01 -34.70090 141.30860 15361 ft 321 kts 266°
2026-04-23 14:01 -34.70217 141.28144 15364 ft 322 kts 266°
2026-04-23 14:02 -34.70348 141.25432 15287 ft 320 kts 266°
2026-04-23 14:02 -34.70477 141.22740 14933 ft 319 kts 266°
2026-04-23 14:02 -34.70603 141.20053 14586 ft 318 kts 266°
2026-04-23 14:02 -34.70732 141.17375 14255 ft 317 kts 266°
2026-04-23 14:03 -34.70858 141.14706 13897 ft 315 kts 266°
2026-04-23 14:03 -34.70982 141.12053 13538 ft 314 kts 267°
2026-04-23 14:03 -34.71106 141.09416 13183 ft 312 kts 267°
2026-04-23 14:03 -34.71225 141.06790 12826 ft 310 kts 267°
2026-04-23 14:04 -34.71341 141.04180 12471 ft 309 kts 268°
2026-04-23 14:04 -34.71457 141.01582 12112 ft 307 kts 268°
2026-04-23 14:04 -34.71571 140.98994 11765 ft 305 kts 268°
2026-04-23 14:04 -34.71685 140.96422 11414 ft 304 kts 268°
2026-04-23 14:05 -34.71798 140.93866 11068 ft 302 kts 269°
2026-04-23 14:05 -34.71912 140.91325 10722 ft 300 kts 269°
2026-04-23 14:05 -34.72026 140.88795 10375 ft 299 kts 269°
2026-04-23 14:05 -34.72138 140.86278 10010 ft 297 kts 269°
2026-04-23 14:06 -34.72248 140.83779 9634 ft 295 kts 269°
2026-04-23 14:06 -34.72357 140.81294 9251 ft 293 kts 269°
2026-04-23 14:06 -34.72467 140.78829 8863 ft 291 kts 269°
2026-04-23 14:06 -34.72574 140.76377 8472 ft 290 kts 269°
2026-04-23 14:07 -34.72677 140.73942 8086 ft 288 kts 269°
2026-04-23 14:07 -34.72881 140.69102 7310 ft 284 kts 269°
2026-04-23 14:07 -34.72983 140.66710 6928 ft 283 kts 269°
2026-04-23 14:08 -34.73084 140.64351 6530 ft 281 kts 268°
2026-04-23 14:08 -34.73186 140.61983 6093 ft 280 kts 269°
2026-04-23 14:08 -34.73285 140.59624 5686 ft 278 kts 269°
2026-04-23 14:08 -34.73382 140.57279 5282 ft 277 kts 269°
2026-04-23 14:09 -34.73478 140.54951 4867 ft 275 kts 269°
2026-04-23 14:09 -34.73574 140.52641 4446 ft 273 kts 269°
2026-04-23 14:09 -34.73668 140.50341 4105 ft 271 kts 270°
2026-04-23 14:09 -34.73759 140.48049 4059 ft 272 kts 270°
2026-04-23 14:10 -34.73848 140.45745 4063 ft 273 kts 270°
2026-04-23 14:10 -34.73941 140.43436 4064 ft 273 kts 270°
2026-04-23 14:10 -34.74034 140.41125 4067 ft 274 kts 269°
2026-04-23 14:10 -34.74129 140.38811 4065 ft 274 kts 269°
2026-04-23 14:11 -34.74221 140.36501 4064 ft 274 kts 269°
2026-04-23 14:11 -34.74312 140.34187 4064 ft 274 kts 269°
2026-04-23 14:11 -34.74407 140.31873 4066 ft 274 kts 269°
2026-04-23 14:11 -34.74502 140.29561 4064 ft 274 kts 269°
2026-04-23 14:12 -34.74597 140.27247 4066 ft 274 kts 269°
2026-04-23 14:12 -34.74688 140.24936 4064 ft 274 kts 269°
2026-04-23 14:12 -34.74777 140.22627 4062 ft 274 kts 270°
2026-04-23 14:12 -34.74868 140.20312 4062 ft 274 kts 269°
2026-04-23 14:13 -34.74955 140.18002 4063 ft 274 kts 269°
2026-04-23 14:13 -34.75041 140.15692 4064 ft 273 kts 269°
2026-04-23 14:13 -34.75130 140.13384 4064 ft 273 kts 269°
2026-04-23 14:13 -34.75219 140.11077 4062 ft 273 kts 269°
2026-04-23 14:14 -34.75307 140.08766 4065 ft 273 kts 269°
2026-04-23 14:14 -34.75394 140.06455 4064 ft 273 kts 269°
2026-04-23 14:14 -34.75482 140.04143 4065 ft 274 kts 269°
2026-04-23 14:14 -34.75569 140.01829 4068 ft 273 kts 269°
2026-04-23 14:15 -34.75655 139.99516 4063 ft 273 kts 270°
2026-04-23 14:15 -34.75737 139.97204 4064 ft 273 kts 270°
2026-04-23 14:15 -34.75817 139.94924 4068 ft 273 kts 270°
2026-04-23 14:15 -34.75900 139.92587 4061 ft 273 kts 270°
2026-04-23 14:16 -34.75980 139.90313 4059 ft 273 kts 270°
2026-04-23 14:16 -34.76064 139.87979 4059 ft 273 kts 270°
2026-04-23 14:16 -34.76146 139.85676 4057 ft 273 kts 270°
2026-04-23 14:16 -34.76227 139.83401 4056 ft 273 kts 270°
2026-04-23 14:17 -34.76310 139.81100 4058 ft 273 kts 270°
2026-04-23 14:17 -34.76392 139.78795 4055 ft 273 kts 270°
2026-04-23 14:17 -34.76474 139.76491 4053 ft 273 kts 270°
2026-04-23 14:17 -34.76556 139.74187 4058 ft 273 kts 270°
2026-04-23 14:18 -34.76637 139.71879 4054 ft 273 kts 270°
2026-04-23 14:18 -34.76718 139.69568 4054 ft 273 kts 270°
2026-04-23 14:18 -34.76798 139.67255 4058 ft 273 kts 270°
2026-04-23 14:18 -34.76876 139.64951 4054 ft 273 kts 270°
2026-04-23 14:19 -34.76953 139.62643 4054 ft 273 kts 270°
2026-04-23 14:19 -34.77031 139.60330 4057 ft 273 kts 270°
2026-04-23 14:19 -34.77108 139.58028 4054 ft 273 kts 270°
2026-04-23 14:19 -34.77187 139.55721 4058 ft 273 kts 270°
2026-04-23 14:20 -34.77265 139.53413 4054 ft 273 kts 270°
2026-04-23 14:20 -34.77339 139.51101 4056 ft 274 kts 270°
2026-04-23 14:20 -34.77414 139.48782 4055 ft 275 kts 270°
2026-04-23 14:20 -34.77489 139.46486 4054 ft 275 kts 270°
2026-04-23 14:21 -34.77563 139.44166 4054 ft 274 kts 270°
2026-04-23 14:21 -34.77683 139.41848 4057 ft 275 kts 266°
2026-04-23 14:21 -34.77985 139.39546 4051 ft 276 kts 260°
2026-04-23 14:21 -34.78429 139.37271 4051 ft 276 kts 258°
2026-04-23 14:22 -34.78876 139.34998 4051 ft 276 kts 258°
2026-04-23 14:22 -34.79182 139.32703 4050 ft 274 kts 272°
2026-04-23 14:22 -34.79119 139.30393 4055 ft 273 kts 275°
2026-04-23 14:22 -34.79052 139.28076 4054 ft 273 kts 274°
2026-04-23 14:23 -34.78987 139.25768 4057 ft 273 kts 274°
2026-04-23 14:23 -34.78922 139.23453 4057 ft 273 kts 274°
2026-04-23 14:23 -34.78856 139.21146 4051 ft 273 kts 274°
2026-04-23 14:23 -34.78790 139.18834 4052 ft 273 kts 274°
2026-04-23 14:24 -34.78723 139.16527 4013 ft 273 kts 274°
2026-04-23 14:24 -34.78656 139.14220 3893 ft 272 kts 275°
2026-04-23 14:24 -34.78590 139.11917 3846 ft 272 kts 275°
2026-04-23 14:24 -34.78525 139.09614 3855 ft 272 kts 274°
2026-04-23 14:25 -34.78482 139.08089 3843 ft 274 kts 274°
2026-04-23 14:25 -34.78413 139.05769 3853 ft 275 kts 275°
2026-04-23 14:25 -34.78344 139.03443 3851 ft 276 kts 275°
2026-04-23 14:25 -34.78275 139.01109 3851 ft 276 kts 275°
2026-04-23 14:26 -34.78204 138.98782 3850 ft 275 kts 274°
2026-04-23 14:26 -34.78131 138.96453 3852 ft 274 kts 275°
2026-04-23 14:26 -34.78058 138.94135 3853 ft 275 kts 274°
2026-04-23 14:26 -34.77988 138.91815 3852 ft 275 kts 275°
2026-04-23 14:27 -34.77916 138.89495 3852 ft 274 kts 275°
2026-04-23 14:27 -34.77842 138.87174 3851 ft 274 kts 275°
2026-04-23 14:27 -34.77768 138.84856 3849 ft 275 kts 274°
2026-04-23 14:27 -34.77693 138.82532 3852 ft 275 kts 274°
2026-04-23 14:28 -34.77618 138.80211 3838 ft 274 kts 274°
2026-04-23 14:28 -34.77543 138.77889 3847 ft 275 kts 275°
2026-04-23 14:28 -34.77471 138.75598 3852 ft 264 kts 274°
2026-04-23 14:28 -34.77401 138.73399 3821 ft 257 kts 275°
2026-04-23 14:29 -34.77332 138.71240 3818 ft 254 kts 275°
2026-04-23 14:29 -34.77262 138.69094 3823 ft 254 kts 275°
2026-04-23 14:29 -34.77190 138.66958 3824 ft 252 kts 275°
2026-04-23 14:29 -34.77118 138.64819 3826 ft 253 kts 275°
2026-04-23 14:30 -34.77047 138.62682 3820 ft 253 kts 275°
2026-04-23 14:30 -34.76974 138.60545 3822 ft 253 kts 275°
2026-04-23 14:30 -34.76900 138.58404 3824 ft 253 kts 275°
2026-04-23 14:30 -34.76833 138.56352 3814 ft 238 kts 275°
2026-04-23 14:31 -34.76770 138.54382 3831 ft 227 kts 275°
2026-04-23 14:31 -34.76711 138.52523 3833 ft 211 kts 275°
2026-04-23 14:31 -34.76654 138.50792 3811 ft 202 kts 275°
2026-04-23 14:31 -34.76596 138.49100 3811 ft 199 kts 275°
2026-04-23 14:32 -34.76537 138.47412 3813 ft 200 kts 276°
2026-04-23 14:32 -34.76478 138.45726 3818 ft 199 kts 275°
2026-04-23 14:32 -34.76419 138.44041 3818 ft 200 kts 276°
2026-04-23 14:32 -34.76358 138.42357 3816 ft 196 kts 275°
2026-04-23 14:33 -34.76304 138.40780 3840 ft 181 kts 275°
2026-04-23 14:33 -34.76249 138.39264 3820 ft 178 kts 276°
2026-04-23 14:33 -34.76193 138.37761 3819 ft 178 kts 276°
2026-04-23 14:33 -34.76141 138.36296 3811 ft 166 kts 276°
2026-04-23 14:34 -34.76094 138.34926 3813 ft 160 kts 276°
2026-04-23 14:34 -34.76046 138.33583 3813 ft 158 kts 276°
2026-04-23 14:34 -34.75998 138.32249 3816 ft 158 kts 276°
2026-04-23 14:34 -34.75949 138.30914 3816 ft 158 kts 276°
2026-04-23 14:35 -34.75901 138.29575 3815 ft 158 kts 276°
2026-04-23 14:35 -34.75853 138.28241 3815 ft 158 kts 276°
2026-04-23 14:35 -34.75806 138.26908 3813 ft 158 kts 277°
2026-04-23 14:35 -34.75757 138.25574 3816 ft 158 kts 276°
2026-04-23 14:36 -34.75709 138.24243 3817 ft 157 kts 276°
2026-04-23 14:36 -34.75659 138.22913 3815 ft 157 kts 276°
2026-04-23 14:36 -34.75608 138.21585 3812 ft 158 kts 276°
2026-04-23 14:36 -34.75557 138.20248 3810 ft 158 kts 276°
2026-04-23 14:37 -34.75508 138.18913 3813 ft 158 kts 276°
2026-04-23 14:37 -34.75459 138.17581 3809 ft 157 kts 276°
2026-04-23 14:37 -34.75408 138.16250 3815 ft 158 kts 276°
2026-04-23 14:37 -34.75359 138.14912 3812 ft 159 kts 276°
2026-04-23 14:38 -34.75309 138.13569 3814 ft 159 kts 277°
2026-04-23 14:38 -34.75281 138.12220 3811 ft 161 kts 268°
2026-04-23 14:38 -34.75716 138.10976 3820 ft 164 kts 227°
2026-04-23 14:38 -34.76701 138.10335 3821 ft 162 kts 184°
2026-04-23 14:39 -34.77764 138.10577 3819 ft 155 kts 148°
2026-04-23 14:39 -34.78753 138.11116 3820 ft 157 kts 157°
2026-04-23 14:39 -34.79786 138.11511 3811 ft 158 kts 159°
2026-04-23 14:39 -34.80837 138.11923 3814 ft 158 kts 153°
2026-04-23 14:40 -34.81806 138.12521 3818 ft 155 kts 142°
2026-04-23 14:40 -34.82649 138.13317 3809 ft 152 kts 129°
2026-04-23 14:40 -34.83352 138.14270 3818 ft 151 kts 120°
2026-04-23 14:40 -34.83897 138.15339 3810 ft 147 kts 110°
2026-04-23 14:41 -34.84278 138.16490 3815 ft 146 kts 103°
2026-04-23 14:41 -34.84523 138.17684 3809 ft 146 kts 102°
2026-04-23 14:41 -34.85126 138.18703 3828 ft 153 kts 130°
2026-04-23 14:41 -34.85629 138.19758 3820 ft 140 kts 88°
2026-04-23 14:42 -34.85579 138.20953 3811 ft 143 kts 88°
2026-04-23 14:42 -34.85705 138.22160 3817 ft 143 kts 92°
2026-04-23 14:42 -34.85866 138.23355 3816 ft 143 kts 95°
2026-04-23 14:42 -34.86026 138.24555 3817 ft 144 kts 95°
2026-04-23 14:43 -34.86179 138.25759 3814 ft 144 kts 95°
2026-04-23 14:43 -34.86329 138.26971 3809 ft 144 kts 93°
2026-04-23 14:43 -34.86475 138.28174 3807 ft 144 kts 94°
2026-04-23 14:43 -34.86614 138.29378 3814 ft 144 kts 93°
2026-04-23 14:44 -34.86749 138.30583 3812 ft 144 kts 94°
2026-04-23 14:44 -34.86882 138.31789 3815 ft 143 kts 93°
2026-04-23 14:44 -34.87013 138.32984 3812 ft 141 kts 93°
2026-04-23 14:44 -34.87139 138.34148 3520 ft 139 kts 92°
2026-04-23 14:45 -34.87266 138.35324 3136 ft 140 kts 91°
2026-04-23 14:45 -34.87390 138.36491 2761 ft 138 kts 90°
2026-04-23 14:45 -34.87513 138.37652 2397 ft 138 kts 90°
2026-04-23 14:45 -34.87635 138.38800 2079 ft 135 kts 90°
2026-04-23 14:46 -34.87754 138.39931 2021 ft 136 kts 90°
2026-04-23 14:46 -34.87873 138.41079 2020 ft 137 kts 89°
2026-04-23 14:46 -34.87992 138.42225 2016 ft 136 kts 89°
2026-04-23 14:46 -34.88110 138.43344 1840 ft 131 kts 89°
2026-04-23 14:47 -34.88224 138.44457 1509 ft 132 kts 91°
2026-04-23 14:47 -34.88338 138.45580 1515 ft 136 kts 91°
2026-04-23 14:47 -34.88455 138.46722 1516 ft 137 kts 91°
2026-04-23 14:47 -34.88573 138.47872 1515 ft 137 kts 91°
2026-04-23 14:48 -34.88691 138.49019 1506 ft 137 kts 91°
2026-04-23 14:48 -34.88810 138.50174 1510 ft 138 kts 91°
2026-04-23 14:48 -34.88930 138.51341 1514 ft 139 kts 91°
2026-04-23 14:48 -34.89051 138.52509 1509 ft 139 kts 91°
2026-04-23 14:49 -34.89170 138.53663 1508 ft 139 kts 91°
2026-04-23 14:49 -34.89291 138.54831 1517 ft 138 kts 91°
2026-04-23 14:49 -34.89412 138.55987 1509 ft 137 kts 91°
2026-04-23 14:49 -34.89530 138.57142 1508 ft 137 kts 91°
2026-04-23 14:50 -34.89900 138.58220 1488 ft 147 kts 131°
2026-04-23 14:50 -34.90902 138.58557 1492 ft 160 kts 194°